This is the latest recevied weather packets stored in our database for station/object KP4OZ. If no packets are shown the sender has not sent any weather packets the latest 1 day(s).
| Time | Temp. | Humidity | Pressure | Rain* | Wind** | Luminosity | Snow |
|---|---|---|---|---|---|---|---|
| 1778030892 | 27.78° C | 74% | 1017.9 hPa | 0 mm | - | - | - |
| 1778029982 | 27.78° C | 73% | 1017.8 hPa | 0 mm | - | - | - |
| 1778029680 | 27.78° C | 72% | 1018 hPa | 0 mm | - | - | - |
| 1778029074 | 28.33° C | 71% | 1017.9 hPa | 0 mm | - | - | - |
| 1778028771 | 28.33° C | 70% | 1017.9 hPa | 0 mm | - | - | - |
| 1778028467 | 28.33° C | 70% | 1017.6 hPa | 0 mm | - | - | - |
| 1778028165 | 28.33° C | 69% | 1017.8 hPa | 0 mm | - | - | - |
| 1778027860 | 28.33° C | 69% | 1017.5 hPa | 0 mm | - | - | - |
| 1778027557 | 28.33° C | 69% | 1017.7 hPa | 0 mm | - | - | - |
| 1778027253 | 28.33° C | 68% | 1017.5 hPa | 0 mm | - | - | - |
| 1778026040 | 28.89° C | 67% | 1017.4 hPa | 0 mm | - | - | - |
| 1778024829 | 28.89° C | 66% | 1017.3 hPa | 0 mm | - | - | - |
| 1778023618 | 29.44° C | 65% | 1017.1 hPa | 0 mm | - | - | - |
| 1778022711 | 29.44° C | 64% | 1017.2 hPa | 0 mm | - | - | - |
| 1778022105 | 29.44° C | 64% | 1017 hPa | 0 mm | - | - | - |
| 1778021801 | 29.44° C | 63% | 1016.8 hPa | 0 mm | - | - | - |
| 1778021194 | 30° C | 62% | 1016.8 hPa | 0 mm | - | - | - |
| 1778020892 | 30° C | 62% | 1016.7 hPa | 0 mm | - | - | - |
| 1778020589 | 30° C | 61% | 1016.7 hPa | 0 mm | - | - | - |
| 1778020285 | 30.56° C | 60% | 1016.6 hPa | 0 mm | - | - | - |
| 1778016954 | 31.67° C | 53% | 1016.1 hPa | 0 mm | - | - | - |
| 1778016044 | 32.22° C | 52% | 1015.7 hPa | 0 mm | - | - | - |
| 1778013924 | 32.78° C | 50% | 1015.3 hPa | 0 mm | - | - | - |
| 1778013621 | 32.78° C | 49% | 1015.3 hPa | 0 mm | - | - | - |
| 1778010892 | 33.89° C | 47% | 1015.4 hPa | 0 mm | - | - | - |
* Rain latest hour (hover to see other rain measurements)
** Current wind speed in m/s (hover to see current wind gust speed)